Location: Devore Heights
(34.2372°N, 117.4156°W)
Time: 18:19:55
(UTC+00:00)

deb Explorer IX - Pass Details

Date: 16 September 2024
Orbit: 502 x 816 km, 38.7° (Epoch: 15 October)

Event Time Altitude Azimuth Distance (km) Brightness Sun altitude
Rises 02:47:51 0° 240° (WSW) 3,348 ? -11.6°
Reaches altitude 10° 02:50:20 10° 238° (WSW) 2,442 ? -12.1°
Maximum altitude 02:56:11 72° 155° (SSE) 894 ? -13.3°
Enters shadow 03:00:58 16° 73° (ENE) 2,062 ? -14.3°
Drops below altitude 10° 03:02:05 10° 72° (ENE) 2,458 - -14.5°
Sets 03:04:36 0° 70° (ENE) 3,371 - -15.0°
